Preview of NWS' New Version of Forecast
This preview is not operational and should not be used for support decisions.

Regional Weather Roundup (RWR)

Issued by National Weather Service (NWS)

                            
000
ASPQ40 PGUM 200610
RWRPQ 
WEATHER ROUNDUP FOR THE MARIANAS AND MICRONESIA
NATIONAL WEATHER SERVICE TIYAN GU
400 PM CHST FRI SEP 20 2019

GUZ001>004-200700-
MARIANA ISLANDS-
  
CITY           SKY/WX    TMP DP  RH WIND       PRES   REMARKS
GUAM AIRPORT   MOSUNNY   82  73  74 NW6       29.75R                  
ANDERSEN AFB   PTSUNNY   82  75  78 NW7       29.75R                  
ROTA AIRPORT   PTSUNNY   81  75  83 W9        29.71R                  
TINIAN AP      PTSUNNY   84  77  79 E6        29.71R HX  94           
SAIPAN AP      MOSUNNY   82  77  83 N3        29.72R HX  91           

$$

PMZ161-200700-
REPUBLIC OF PALAU-
  
CITY           SKY/WX    TMP DP  RH WIND       PRES   REMARKS
KOROR AP       PTSUNNY   86  73  66 W8        29.79S HX  93           
KOROR WSO      NOT AVBL                                               

$$

PMZ171>174-200700-
FEDERATED STATES OF MICRONESIA-
  
CITY           SKY/WX    TMP DP  RH WIND       PRES   REMARKS
YAP AIRPORT    PTSUNNY   86  75  70 NW8       29.80S HX  95           
CHUUK AP       MOSUNNY   88  82  84 CALM      29.76R HX 108           
POHNPEI AP     NOT AVBL                                               
POHNPEI WSO    PTSUNNY   88  75  66 W5        29.78S HX  97           
KOSRAE AP      NOT AVBL                                               

$$

PMZ181-200700-
REPUBLIC OF THE MARSHALL ISLANDS-
  
CITY           SKY/WX    TMP DP  RH WIND       PRES   REMARKS
KWAJALEIN AP   SUNNY     86  75  70 W8        29.75R HX  95           
MAJURO AP      MOCLDY    86  79  79 W13       29.76R HX  99           
MAJURO WSO     PTCLDY    86  75  70 W9        29.75R HX  95           

$$